Location: Newark
(40.3500°N, 15.2333°E)
Time: 20:52:48
(UTC+00:00)

Vanguard 2 - Pass Details

Date: 03 February 2020
Orbit: 552 x 2939 km, 32.9° (Epoch: 22 February)

Event Time Altitude Azimuth Distance (km) Brightness Sun altitude
Rises 05:29:45 0° 218° (SW) 6,558 12.0 -7.6°
Reaches altitude 10° 05:34:26 10° 211° (SSW) 5,683 11.8 -6.7°
Maximum altitude 05:49:58 39° 151° (SSE) 3,778 11.6 -3.9°
Drops below altitude 10° 06:03:27 10° 90° (E) 4,985 13.1 -1.5°
Sets 06:07:11 0° 83° (E) 5,711 13.2 -0.8°
